[[{"header":{"parameterUnit":"m.s-1","parameterCategory":1,"la1":30.2991,"la2":30.254,"lo1":-89.0895,"lo2":-89.0444,"dy":0.0017,"dx":0.0017,"nx":28,"ny":28,"refTime":"2023-10-13T09:00:00:Z","depth":0,"parameterNumber":2,"parameterNumberName":"U-component_of_WINDS"},"data":[0,0,0,0,0,0,0,0,0,0,0,0,0,0,0,0,0,0,0,0,0,0,0,0,0,0,0,0,0,0,0,0,0,0,0,0,0,0,0,0,0,0,0,0,0,0,0,0,0,0,0,0,0,0,0,0,0,0,0.398,0.3981,0,0.4076,0.4077,0.4078,0.4133,0.4133,0.4133,0.4134,0.4236,0.4238,0.4241,0,0,0,0,0,0,0,0,0,0,0,0,0,0.3847,0.3849,0.398,0.3981,0.3982,0.4076,0.4077,0.4078,0.4133,0.4133,0.4134,0.4134,0.4235,0.4238,0.4241,0,0,0,0,0,0,0,0,0,0,0,0,0,0.392,0.3849,0.3979,0.4021,0.4025,0.4075,0.4077,0.4079,0.4133,0.4133,0.4134,0.4134,0.4234,0.4238,0.4241,0.4259,0,0,0.4253,0.4255,0,0,0,0,0,0,0,0,0.3916,0.3925,0.4013,0.4018,0.4023,0.4093,0.4068,0.4139,0.4133,0.4092,0.4134,0.4134,0.4188,0.4196,0.4213,0.4264,0.4268,0.4253,0.4256,0.4257,0.4258,0,0,0,0,0,0,0,0.391,0.3921,0.4018,0.4015,0.4021,0.4035,0.4046,0.4081,0.4138,0.4096,0.41,0.411,0.4191,0.4209,0.4216,0.427,0.4253,0.4257,0.4259,0.4261,0.434,0.4339,0,0,0,0,0,0,0.3898,0.3916,0.4015,0.4021,0.3969,0.4037,0.4049,0.407,0.4137,0.4148,0.411,0.4113,0.4203,0.4212,0.422,0.4245,0.4257,0.4261,0.4263,0.434,0.434,0.4339,0,0,0,0,0,0,0.3895,0.3907,0.4011,0.397,0.3984,0.4039,0.4062,0.4072,0.409,0.4148,0.4159,0.4118,0.4203,0.4215,0.4249,0.4249,0.4263,0.4266,0.434,0.434,0.4339,0.4294,0,0,0,0,0,0,0.3891,0.3905,0.3912,0.3969,0.3986,0.4037,0.4062,0.4074,0.4096,0.4101,0.4159,0.4169,0.4205,0.4243,0.4252,0.4255,0.4269,0.434,0.434,0.4339,0.4296,0.4293,0.429,0,0,0,0,0,0.3886,0.3896,0.3912,0.3923,0.3995,0.4037,0.4047,0.4086,0.4096,0.4104,0.4141,0.4167,0.4247,0.4246,0.4257,0.426,0.434,0.434,0.434,0.4298,0.4293,0.429,0,0,0,0,0,0,0.3839,0.3905,0.3923,0.3951,0.3988,0.4046,0.4057,0.4081,0.4116,0.4119,0.4168,0.4181,0.421,0.4239,0.4236,0.4281,0.4297,0.4299,0.4261,0.4257,0.4254,0.4247,0.4272,0,0,0,0,0,0.3832,0.3859,0.3915,0.3935,0.3952,0.4001,0.4021,0.4048,0.4089,0.4105,0.4144,0.4183,0.4218,0.4239,0.4274,0.4301,0.4314,0.4308,0.4305,0.4302,0.4303,0.4319,0.4317,0.4338,0.4338,0.4338,0,0,0.3817,0.3856,0.3871,0.3927,0.3958,0.3986,0.4014,0.4043,0.4064,0.411,0.4144,0.4174,0.4221,0.4251,0.4266,0.4276,0.43,0.4302,0.4299,0.4302,0.4318,0.4316,0.4315,0.4338,0.4338,0.4338,0,0,0.3805,0.3837,0.3857,0.3888,0.3935,0.3967,0.3971,0.4026,0.4047,0.4082,0.4116,0.4143,0.4201,0.4233,0.4257,0.4255,0.428,0.4265,0.4248,0.4263,0.4261,0.426,0.4259,0.4259,0.4266,0.4266,0.4266,0,0.3782,0.3824,0.3865,0.3891,0.3914,0.3955,0.3976,0.4004,0.4061,0.4076,0.4086,0.4158,0.4193,0.4231,0.423,0.4248,0.4255,0.4259,0.4258,0.4257,0.4257,0.4257,0.4256,0.4264,0.4264,0.4264,0.4264,0,0.3793,0.3821,0.3832,0.3883,0.3908,0.3931,0.3976,0.3997,0.4022,0.4053,0.4088,0.413,0.4174,0.4185,0.4211,0.4227,0.4231,0.4248,0.4266,0.4252,0.4252,0.4253,0.4261,0.4261,0.4262,0.4263,0,0,0.3754,0.3827,0.383,0.3853,0.3908,0.3931,0.3956,0.3998,0.4014,0.4051,0.4074,0.4121,0.4137,0.4164,0.4194,0.4206,0.4202,0.4223,0.4225,0.4217,0.4222,0.4208,0.4207,0.4219,0.4219,0.4219,0.4218,0,0.375,0.3795,0.3833,0.3865,0.3892,0.3931,0.3953,0.3989,0.4019,0.4047,0.408,0.4113,0.4132,0.4148,0.4163,0.4199,0.4203,0.42,0.4241,0.4242,0.4228,0.4207,0.4193,0.4189,0.4218,0.4218,0.4218,0,0.3751,0.3785,0.3819,0.387,0.3882,0.3901,0.3942,0.3968,0.4009,0.403,0.4059,0.4089,0.4118,0.4132,0.4173,0.4169,0.4188,0.4209,0.421,0.4215,0.4229,0.4212,0.4189,0.4189,0.4219,0.4219,0.4219,0,0.3719,0.3773,0.3801,0.382,0.3879,0.3892,0.3917,0.3959,0.3981,0.4017,0.4032,0.4071,0.4092,0.4122,0.4162,0.4168,0.4198,0.4215,0.4217,0.4216,0.4221,0.4221,0.4201,0.4234,0.4234,0.4234,0.4234,0,0.371,0.3729,0.3787,0.3804,0.3827,0.3869,0.3891,0.3921,0.3957,0.3981,0.4018,0.4039,0.4091,0.4119,0.4151,0.4179,0.4189,0.4207,0.4215,0.4203,0.4201,0.4217,0.4218,0.4234,0.4234,0.4234,0.4234,0,0.3678,0.3717,0.375,0.3803,0.3817,0.3831,0.3877,0.3896,0.3927,0.3956,0.3966,0.4016,0.405,0.4093,0.4142,0.4163,0.4189,0.4201,0.4174,0.4179,0.4177,0.4177,0.4167,0.4168,0.42,0.4199,0.4199,0,0.367,0.3685,0.374,0.3757,0.3781,0.381,0.3832,0.3875,0.3897,0.3945,0.3957,0.3994,0.4026,0.408,0.4121,0.4159,0.4172,0.4166,0.4178,0.4166,0.4172,0.417,0.4172,0.4163,0.4163,0.4162,0.4162,0,0.365,0.3669,0.3699,0.3735,0.376,0.3791,0.3824,0.3837,0.3887,0.3909,0.3945,0.3969,0.4018,0.4055,0.4097,0.4125,0.4152,0.4158,0.416,0.4148,0.4132,0.414,0.4165,0.4158,0.4158,0.4159,0.4159,0.4159,0.363,0.3646,0.3686,0.3718,0.3747,0.3776,0.3795,0.3828,0.3858,0.39,0.3924,0.3958,0.4,0.4059,0.4085,0.4114,0.4123,0.4127,0.4128,0.4128,0.4124,0.4127,0.4122,0.4122,0.4122,0.4122,0.4122,0,0.3613,0.364,0.3669,0.3713,0.3738,0.3759,0.3797,0.3817,0.3846,0.3881,0.3912,0.3952,0.3987,0.403,0.4069,0.4083,0.4096,0.4091,0.4091,0.4097,0.4113,0.4107,0.408,0.408,0.408,0.408,0.408,0.408,0.3607,0.3633,0.3656,0.3698,0.3726,0.3758,0.3778,0.3805,0.3834,0.3876,0.3905,0.3933,0.3971,0.4012,0.4046,0.4058,0.407,0.4062,0.4077,0.4092,0.4096,0.4099,0.4094,0.4064,0.4064,0.4059,0.4058,0.4058]},{"header":{"parameterUnit":"m.s-1","parameterCategory":1,"la1":30.2991,"la2":30.254,"lo1":-89.0895,"lo2":-89.0444,"dy":0.0017,"dx":0.0017,"nx":28,"ny":28,"refTime":"2023-10-13T09:00:00:Z","depth":0,"parameterNumber":3,"parameterNumberName":"V-component_of_WINDS"},"data":[0,0,0,0,0,0,0,0,0,0,0,0,0,0,0,0,0,0,0,0,0,0,0,0,0,0,0,0,0,0,0,0,0,0,0,0,0,0,0,0,0,0,0,0,0,0,0,0,0,0,0,0,0,0,0,0,0,0,0.9421,0.9421,0,0.943,0.943,0.943,0.9424,0.9424,0.9424,0.9423,0.9434,0.9435,0.9435,0,0,0,0,0,0,0,0,0,0,0,0,0,0.9396,0.9396,0.9421,0.9421,0.9421,0.943,0.943,0.943,0.9424,0.9424,0.9424,0.9423,0.9434,0.9435,0.9435,0,0,0,0,0,0,0,0,0,0,0,0,0,0.9406,0.9397,0.9421,0.9419,0.9419,0.943,0.943,0.943,0.9424,0.9424,0.9424,0.9423,0.9434,0.9435,0.9435,0.9449,0,0,0.9438,0.9438,0,0,0,0,0,0,0,0,0.9406,0.9407,0.9419,0.9419,0.9419,0.9426,0.9425,0.9437,0.9425,0.9422,0.9423,0.9423,0.9432,0.9433,0.9435,0.945,0.945,0.9438,0.9438,0.9439,0.9439,0,0,0,0,0,0,0,0.9405,0.9407,0.9425,0.9419,0.9419,0.9417,0.9418,0.9428,0.9429,0.9423,0.9422,0.9423,0.9432,0.9435,0.9436,0.945,0.9438,0.9439,0.9439,0.9439,0.9471,0.9472,0,0,0,0,0,0,0.9404,0.9406,0.9424,0.9425,0.9411,0.9418,0.9419,0.9424,0.9429,0.943,0.9424,0.9423,0.9433,0.9435,0.9436,0.945,0.9439,0.944,0.944,0.9471,0.9471,0.9472,0,0,0,0,0,0,0.9404,0.9406,0.9424,0.9415,0.9417,0.9419,0.9424,0.9424,0.9427,0.943,0.943,0.9426,0.9433,0.9435,0.9445,0.945,0.944,0.9441,0.9471,0.9471,0.9472,0.9479,0,0,0,0,0,0,0.9403,0.9406,0.9412,0.9415,0.9418,0.9433,0.9425,0.9425,0.9429,0.9428,0.9433,0.9433,0.9433,0.9444,0.9446,0.9451,0.9441,0.947,0.9471,0.9472,0.9478,0.9479,0.9481,0,0,0,0,0,0.9402,0.9415,0.9412,0.9415,0.9425,0.9434,0.9435,0.9434,0.9429,0.9434,0.9435,0.9433,0.9449,0.9445,0.9447,0.9453,0.947,0.9471,0.9471,0.9477,0.9479,0.9481,0,0,0,0,0,0,0.9413,0.9415,0.9413,0.9427,0.943,0.9433,0.944,0.9437,0.9442,0.9441,0.944,0.9441,0.945,0.9453,0.9448,0.9464,0.9459,0.946,0.9462,0.9464,0.9465,0.9464,0.9442,0,0,0,0,0,0.9417,0.9424,0.9425,0.9437,0.9439,0.9439,0.9442,0.9441,0.9444,0.9446,0.9448,0.9451,0.9456,0.9461,0.9466,0.9478,0.9478,0.9483,0.9484,0.9485,0.9486,0.9489,0.9491,0.9474,0.9474,0.9474,0,0,0.9426,0.9427,0.9432,0.9439,0.9441,0.9447,0.944,0.9448,0.9451,0.9447,0.9456,0.9457,0.9461,0.9471,0.9475,0.9473,0.949,0.9486,0.9487,0.9487,0.949,0.9492,0.9493,0.9475,0.9475,0.9475,0,0,0.9443,0.9446,0.9455,0.9456,0.9459,0.9458,0.946,0.9463,0.9463,0.9471,0.9467,0.9472,0.9482,0.9483,0.9486,0.9499,0.9496,0.9501,0.9508,0.9511,0.9512,0.9514,0.9516,0.9518,0.9502,0.9502,0.9502,0,0.9453,0.9462,0.946,0.9466,0.9468,0.9463,0.9471,0.9473,0.9477,0.9479,0.9475,0.9485,0.9488,0.9496,0.9499,0.9502,0.9503,0.9501,0.9512,0.9513,0.9514,0.9517,0.9518,0.9503,0.9503,0.9503,0.9502,0,0.9473,0.9479,0.9486,0.9488,0.9491,0.9499,0.9496,0.9499,0.9496,0.9496,0.9502,0.9504,0.9508,0.951,0.9509,0.9518,0.9516,0.9513,0.9507,0.9516,0.9519,0.952,0.9503,0.9503,0.9503,0.9503,0,0,0.95,0.9499,0.9501,0.95,0.9501,0.9506,0.9511,0.9514,0.9516,0.9518,0.9522,0.9529,0.9524,0.9527,0.9525,0.9528,0.9535,0.9524,0.9524,0.9524,0.9542,0.9544,0.9546,0.9533,0.9533,0.9533,0.9542,0,0.9516,0.9526,0.9522,0.9532,0.9535,0.9528,0.9533,0.9533,0.9532,0.9534,0.9533,0.9537,0.9532,0.9533,0.9535,0.9534,0.9539,0.9533,0.9535,0.9535,0.9534,0.9547,0.955,0.9558,0.9543,0.9543,0.9543,0,0.9537,0.9538,0.9548,0.9544,0.9546,0.955,0.955,0.9554,0.9553,0.9551,0.9552,0.9548,0.9552,0.9546,0.955,0.9547,0.9547,0.9546,0.9546,0.9546,0.954,0.9546,0.9561,0.9561,0.9545,0.9545,0.9545,0,0.9553,0.9557,0.9562,0.9562,0.956,0.9562,0.9561,0.956,0.9561,0.9561,0.9561,0.9562,0.9563,0.9563,0.9559,0.9555,0.9562,0.9557,0.956,0.956,0.9562,0.9562,0.9576,0.9564,0.9564,0.9564,0.9564,0,0.9571,0.9576,0.9569,0.9572,0.9577,0.9572,0.9577,0.9575,0.9573,0.9575,0.957,0.9572,0.9567,0.9567,0.9564,0.9567,0.9567,0.9565,0.9564,0.9565,0.9565,0.9566,0.9565,0.9564,0.9564,0.9564,0.9564,0,0.959,0.9585,0.959,0.9586,0.9585,0.9588,0.9584,0.9586,0.9583,0.9586,0.9586,0.9581,0.9581,0.9577,0.9577,0.9575,0.9578,0.9577,0.9578,0.9577,0.958,0.958,0.9594,0.9595,0.9583,0.9583,0.9583,0,0.9601,0.9605,0.96,0.96,0.9599,0.96,0.96,0.9594,0.9594,0.9591,0.9593,0.9593,0.9592,0.9593,0.9589,0.9588,0.9586,0.9591,0.9586,0.9586,0.9584,0.9583,0.9583,0.9592,0.9592,0.9592,0.9592,0,0.962,0.9617,0.9617,0.9615,0.9615,0.9614,0.9612,0.9613,0.9606,0.9606,0.9606,0.9605,0.9603,0.9602,0.96,0.9598,0.9593,0.9593,0.9594,0.9595,0.9595,0.9593,0.958,0.9593,0.9593,0.9593,0.9593,0.9593,0.9635,0.9636,0.9632,0.9632,0.9629,0.9627,0.9628,0.9624,0.9623,0.9621,0.9617,0.9617,0.9613,0.9609,0.9607,0.9606,0.9604,0.9605,0.9605,0.9605,0.9605,0.9595,0.9606,0.9606,0.9606,0.9606,0.9606,0,0.9652,0.9649,0.9648,0.9645,0.9643,0.9638,0.9635,0.9634,0.9634,0.9631,0.9629,0.9627,0.9625,0.962,0.9618,0.9617,0.9615,0.9617,0.9617,0.9616,0.9608,0.9608,0.9619,0.9619,0.9619,0.9619,0.9619,0.9619,0.9661,0.9663,0.9659,0.9658,0.9655,0.9654,0.9652,0.9649,0.9646,0.9644,0.9642,0.9638,0.9634,0.963,0.9627,0.9626,0.9625,0.9627,0.9625,0.9618,0.9617,0.9616,0.9615,0.9627,0.9627,0.9632,0.9632,0.9632]}]]